Time,TemperatureF,DewpointF,PressureIn,WindDirection,WindDirectionDegrees,WindSpeedMPH,WindSpeedGustMPH,Humidity,HourlyPrecipIn,Conditions,Clouds,dailyrainin,SoftwareType,DateUTC
2013-09-01 00:01:00,76.1,68.0,29.96,West,273,0.0,0.0,76,0.00,,---,0.00,VWS V14.01,2013-09-01 07:01:00,
2013-09-01 00:06:00,76.1,68.0,29.97,West,273,0.0,0.0,76,0.00,,---,0.00,VWS V14.01,2013-09-01 07:06:00,
2013-09-01 00:11:00,76.0,67.9,29.96,West,273,0.0,0.0,76,0.00,,---,0.00,VWS V14.01,2013-09-01 07:11:00,
2013-09-01 00:16:00,76.0,67.9,29.96,West,273,0.0,0.0,76,0.00,,---,0.00,VWS V14.01,2013-09-01 07:16:00,
2013-09-01 00:21:00,75.9,67.4,29.96,West,273,0.0,0.0,75,0.00,,---,0.00,VWS V14.01,2013-09-01 07:21:00,
2013-09-01 00:26:00,75.8,66.9,29.96,West,273,0.0,0.0,74,0.00,,---,0.00,VWS V14.01,2013-09-01 07:26:00,
2013-09-01 00:31:00,75.7,66.8,29.96,West,273,0.0,0.0,74,0.00,,---,0.00,VWS V14.01,2013-09-01 07:31:00,
2013-09-01 00:36:00,75.7,66.8,29.96,West,273,0.0,0.0,74,0.00,,---,0.00,VWS V14.01,2013-09-01 07:36:00,
2013-09-01 00:41:00,75.6,66.7,29.96,West,273,0.0,0.0,74,0.00,,---,0.00,VWS V14.01,2013-09-01 07:41:00,
2013-09-01 00:46:00,75.5,66.6,29.96,West,261,0.0,0.0,74,0.00,,---,0.00,VWS V14.01,2013-09-01 07:46:00,
2013-09-01 00:51:00,75.4,66.5,29.96,West,261,0.0,0.0,74,0.00,,---,0.00,VWS V14.01,2013-09-01 07:51:00,
2013-09-01 00:56:00,75.3,66.4,29.96,West,261,0.0,0.0,74,0.00,,---,0.00,VWS V14.01,2013-09-01 07:56:00,
2013-09-01 01:01:00,75.2,66.3,29.96,NE,49,0.0,1.0,74,0.00,,---,0.00,VWS V14.01,2013-09-01 08:01:00,
2013-09-01 01:06:00,75.0,66.2,29.96,NE,49,0.0,1.0,74,0.00,,---,0.00,VWS V14.01,2013-09-01 08:06:00,
2013-09-01 01:11:00,74.9,66.1,29.96,NE,49,0.0,1.0,74,0.00,,---,0.00,VWS V14.01,2013-09-01 08:11:00,
2013-09-01 01:16:00,74.8,66.0,29.96,NE,49,0.0,1.0,74,0.00,,---,0.00,VWS V14.01,2013-09-01 08:16:00,
2013-09-01 01:21:00,74.7,65.9,29.95,NE,49,0.0,1.0,74,0.00,,---,0.00,VWS V14.01,2013-09-01 08:21:00,
2013-09-01 01:26:00,74.5,65.7,29.95,NE,49,0.0,1.0,74,0.00,,---,0.00,VWS V14.01,2013-09-01 08:26:00,
2013-09-01 01:31:00,74.4,65.6,29.95,NE,49,0.0,0.0,74,0.00,,---,0.00,VWS V14.01,2013-09-01 08:31:00,
2013-09-01 01:36:00,74.3,65.9,29.95,NE,49,0.0,0.0,75,0.00,,---,0.00,VWS V14.01,2013-09-01 08:36:00,
2013-09-01 01:41:00,74.2,65.8,29.95,NE,49,0.0,0.0,75,0.00,,---,0.00,VWS V14.01,2013-09-01 08:41:00,
2013-09-01 01:46:00,74.1,65.7,29.95,NE,49,0.0,0.0,75,0.00,,---,0.00,VWS V14.01,2013-09-01 08:46:00,
2013-09-01 01:51:00,73.9,65.5,29.95,NE,49,0.0,0.0,75,0.00,,---,0.00,VWS V14.01,2013-09-01 08:51:00,
2013-09-01 01:56:00,73.8,65.4,29.95,NE,49,0.0,1.0,75,0.00,,---,0.00,VWS V14.01,2013-09-01 08:56:00,
2013-09-01 02:01:00,73.7,65.3,29.95,NE,49,0.0,0.0,75,0.00,,---,0.00,VWS V14.01,2013-09-01 09:01:00,
2013-09-01 02:06:00,73.6,65.2,29.95,NE,49,0.0,0.0,75,0.00,,---,0.00,VWS V14.01,2013-09-01 09:06:00,
2013-09-01 02:11:00,73.5,65.1,29.95,NE,49,0.0,0.0,75,0.00,,---,0.00,VWS V14.01,2013-09-01 09:11:00,
2013-09-01 02:16:00,73.5,65.1,29.95,NE,49,0.0,0.0,75,0.00,,---,0.00,VWS V14.01,2013-09-01 09:16:00,
2013-09-01 02:21:00,73.4,65.0,29.94,NE,49,0.0,0.0,75,0.00,,---,0.00,VWS V14.01,2013-09-01 09:21:00,
2013-09-01 02:26:00,73.3,64.9,29.94,NE,49,0.0,0.0,75,0.00,,---,0.00,VWS V14.01,2013-09-01 09:26:00,
2013-09-01 02:31:00,73.3,64.9,29.94,NE,49,0.0,0.0,75,0.00,,---,0.00,VWS V14.01,2013-09-01 09:31:00,
2013-09-01 02:36:00,73.3,64.9,29.94,NE,49,0.0,0.0,75,0.00,,---,0.00,VWS V14.01,2013-09-01 09:36:00,
2013-09-01 02:41:00,73.2,65.2,29.94,NE,49,0.0,0.0,76,0.00,,---,0.00,VWS V14.01,2013-09-01 09:41:00,
2013-09-01 02:46:00,73.1,65.1,29.94,NE,49,0.0,0.0,76,0.00,,---,0.00,VWS V14.01,2013-09-01 09:46:00,
2013-09-01 02:51:00,73.0,65.0,29.94,NE,49,0.0,0.0,76,0.00,,---,0.00,VWS V14.01,2013-09-01 09:51:00,
2013-09-01 02:56:00,72.9,65.3,29.94,NE,49,0.0,0.0,77,0.00,,---,0.00,VWS V14.01,2013-09-01 09:56:00,
2013-09-01 03:01:00,72.8,65.2,29.94,NE,49,0.0,0.0,77,0.00,,---,0.00,VWS V14.01,2013-09-01 10:01:00,
2013-09-01 03:06:00,72.7,65.1,29.94,NE,49,0.0,0.0,77,0.00,,---,0.00,VWS V14.01,2013-09-01 10:06:00,
2013-09-01 03:11:00,72.6,65.0,29.94,NE,49,0.0,0.0,77,0.00,,---,0.00,VWS V14.01,2013-09-01 10:11:00,
2013-09-01 03:16:00,72.5,64.9,29.94,NE,49,0.0,0.0,77,0.00,,---,0.00,VWS V14.01,2013-09-01 10:16:00,
2013-09-01 03:21:00,72.5,64.9,29.94,NE,49,0.0,0.0,77,0.00,,---,0.00,VWS V14.01,2013-09-01 10:21:00,
2013-09-01 03:26:00,72.4,64.8,29.94,NE,49,0.0,0.0,77,0.00,,---,0.00,VWS V14.01,2013-09-01 10:26:00,
2013-09-01 03:31:00,72.4,65.2,29.94,NE,49,0.0,0.0,78,0.00,,---,0.00,VWS V14.01,2013-09-01 10:31:00,
2013-09-01 03:36:00,72.3,64.7,29.94,NE,49,0.0,0.0,77,0.00,,---,0.00,VWS V14.01,2013-09-01 10:36:00,
2013-09-01 03:41:00,72.2,65.0,29.94,NE,49,0.0,0.0,78,0.00,,---,0.00,VWS V14.01,2013-09-01 10:41:00,
2013-09-01 03:46:00,72.2,65.0,29.94,NE,49,0.0,0.0,78,0.00,,---,0.00,VWS V14.01,2013-09-01 10:46:00,
2013-09-01 03:51:00,72.2,65.0,29.94,NE,49,0.0,0.0,78,0.00,,---,0.00,VWS V14.01,2013-09-01 10:51:00,
2013-09-01 03:56:00,72.2,64.6,29.94,NE,49,0.0,0.0,77,0.00,,---,0.00,VWS V14.01,2013-09-01 10:56:00,
2013-09-01 04:01:00,72.1,64.9,29.94,NE,49,0.0,0.0,78,0.00,,---,0.00,VWS V14.01,2013-09-01 11:01:00,
2013-09-01 04:06:00,72.0,64.8,29.94,NE,49,0.0,0.0,78,0.00,,---,0.00,VWS V14.01,2013-09-01 11:06:00,
2013-09-01 04:11:00,71.9,64.7,29.94,NE,49,0.0,0.0,78,0.00,,---,0.00,VWS V14.01,2013-09-01 11:11:00,
2013-09-01 04:16:00,71.9,64.7,29.94,NE,49,0.0,0.0,78,0.00,,---,0.00,VWS V14.01,2013-09-01 11:16:00,
2013-09-01 04:21:00,71.7,64.5,29.94,NE,49,0.0,0.0,78,0.00,,---,0.00,VWS V14.01,2013-09-01 11:21:00,
2013-09-01 04:26:00,71.7,64.8,29.94,NE,49,0.0,0.0,79,0.00,,---,0.00,VWS V14.01,2013-09-01 11:26:00,
2013-09-01 04:31:00,71.6,64.8,29.94,NE,49,0.0,0.0,79,0.00,,---,0.00,VWS V14.01,2013-09-01 11:31:00,
2013-09-01 04:36:00,71.6,64.8,29.94,NE,49,0.0,0.0,79,0.00,,---,0.00,VWS V14.01,2013-09-01 11:36:00,
2013-09-01 04:41:00,71.5,64.7,29.94,NE,49,0.0,0.0,79,0.00,,---,0.00,VWS V14.01,2013-09-01 11:41:00,
2013-09-01 04:46:00,71.4,64.9,29.94,NE,49,0.0,0.0,80,0.00,,---,0.00,VWS V14.01,2013-09-01 11:46:00,
2013-09-01 04:51:00,71.3,64.8,29.94,NE,49,0.0,0.0,80,0.00,,---,0.00,VWS V14.01,2013-09-01 11:51:00,
2013-09-01 04:56:00,71.3,64.8,29.94,NE,49,0.0,0.0,80,0.00,,---,0.00,VWS V14.01,2013-09-01 11:56:00,
2013-09-01 05:01:00,71.2,65.1,29.94,NE,49,0.0,0.0,81,0.00,,---,0.00,VWS V14.01,2013-09-01 12:01:00,
2013-09-01 05:06:00,71.2,64.7,29.94,NE,49,0.0,0.0,80,0.00,,---,0.00,VWS V14.01,2013-09-01 12:06:00,
2013-09-01 05:11:00,71.1,64.6,29.94,NE,49,0.0,0.0,80,0.00,,---,0.00,VWS V14.01,2013-09-01 12:11:00,
2013-09-01 05:16:00,71.1,64.6,29.95,NE,49,0.0,0.0,80,0.00,,---,0.00,VWS V14.01,2013-09-01 12:16:00,
2013-09-01 05:21:00,71.0,64.5,29.95,NE,49,0.0,0.0,80,0.00,,---,0.00,VWS V14.01,2013-09-01 12:21:00,
2013-09-01 05:26:00,71.0,64.9,29.95,NE,49,0.0,0.0,81,0.00,,---,0.00,VWS V14.01,2013-09-01 12:26:00,
2013-09-01 05:31:00,71.0,64.9,29.95,NE,49,0.0,0.0,81,0.00,,---,0.00,VWS V14.01,2013-09-01 12:31:00,
2013-09-01 05:36:00,71.1,65.0,29.94,NE,49,0.0,0.0,81,0.00,,---,0.00,VWS V14.01,2013-09-01 12:36:00,
2013-09-01 05:41:00,71.1,64.6,29.94,NE,49,0.0,0.0,80,0.00,,---,0.00,VWS V14.01,2013-09-01 12:41:00,
2013-09-01 05:46:00,71.2,64.7,29.94,NE,49,0.0,0.0,80,0.00,,---,0.00,VWS V14.01,2013-09-01 12:46:00,
2013-09-01 05:51:00,71.3,64.8,29.95,NE,49,0.0,0.0,80,0.00,,---,0.00,VWS V14.01,2013-09-01 12:51:00,
2013-09-01 05:56:00,71.3,64.8,29.95,NE,49,0.0,0.0,80,0.00,,---,0.00,VWS V14.01,2013-09-01 12:56:00,
2013-09-01 06:01:00,71.2,64.7,29.95,NE,49,0.0,0.0,80,0.00,,---,0.00,VWS V14.01,2013-09-01 13:01:00,
2013-09-01 06:06:00,71.2,64.7,29.95,NE,49,0.0,0.0,80,0.00,,---,0.00,VWS V14.01,2013-09-01 13:06:00,
2013-09-01 06:11:00,71.1,64.6,29.95,NE,49,0.0,0.0,80,0.00,,---,0.00,VWS V14.01,2013-09-01 13:11:00,
2013-09-01 06:16:00,71.0,64.5,29.95,NE,49,0.0,0.0,80,0.00,,---,0.00,VWS V14.01,2013-09-01 13:16:00,
2013-09-01 06:21:00,70.9,64.8,29.95,NE,49,0.0,0.0,81,0.00,,---,0.00,VWS V14.01,2013-09-01 13:21:00,
2013-09-01 06:26:00,70.9,64.8,29.95,NE,49,0.0,0.0,81,0.00,,---,0.00,VWS V14.01,2013-09-01 13:26:00,
2013-09-01 06:31:00,70.9,64.8,29.95,NE,49,0.0,0.0,81,0.00,,---,0.00,VWS V14.01,2013-09-01 13:31:00,
2013-09-01 06:36:00,70.9,64.8,29.95,NE,49,0.0,0.0,81,0.00,,---,0.00,VWS V14.01,2013-09-01 13:36:00,
2013-09-01 06:41:00,70.9,64.4,29.95,NE,49,0.0,0.0,80,0.00,,---,0.00,VWS V14.01,2013-09-01 13:41:00,
2013-09-01 06:46:00,70.8,64.3,29.96,NE,49,0.0,0.0,80,0.00,,---,0.00,VWS V14.01,2013-09-01 13:46:00,
2013-09-01 06:51:00,70.9,64.8,29.96,NE,49,0.0,0.0,81,0.00,,---,0.00,VWS V14.01,2013-09-01 13:51:00,
2013-09-01 06:56:00,70.9,64.8,29.96,NE,49,0.0,1.0,81,0.00,,---,0.00,VWS V14.01,2013-09-01 13:56:00,
2013-09-01 07:01:00,70.9,64.4,29.96,NE,49,0.0,0.0,80,0.00,,---,0.00,VWS V14.01,2013-09-01 14:01:00,
2013-09-01 07:06:00,71.2,64.7,29.96,NE,49,0.0,0.0,80,0.00,,---,0.00,VWS V14.01,2013-09-01 14:06:00,
2013-09-01 07:11:00,71.4,64.9,29.96,NE,49,0.0,0.0,80,0.00,,---,0.00,VWS V14.01,2013-09-01 14:11:00,
2013-09-01 07:16:00,72.0,64.8,29.96,NE,49,0.0,0.0,78,0.00,,---,0.00,VWS V14.01,2013-09-01 14:16:00,
2013-09-01 07:21:00,73.0,65.0,29.96,NE,49,0.0,2.0,76,0.00,,---,0.00,VWS V14.01,2013-09-01 14:21:00,
2013-09-01 07:26:00,73.6,65.6,29.96,NE,49,0.0,2.0,76,0.00,,---,0.00,VWS V14.01,2013-09-01 14:26:00,
2013-09-01 07:31:00,73.9,65.5,29.96,North,355,0.0,1.0,75,0.00,,---,0.00,VWS V14.01,2013-09-01 14:31:00,
2013-09-01 07:36:00,74.7,66.6,29.96,North,5,0.0,1.0,76,0.00,,---,0.00,VWS V14.01,2013-09-01 14:36:00,
2013-09-01 07:41:00,75.7,67.2,29.96,North,10,0.0,1.0,75,0.00,,---,0.00,VWS V14.01,2013-09-01 14:41:00,
2013-09-01 07:46:00,76.5,68.0,29.96,NNE,22,0.0,1.0,75,0.00,,---,0.00,VWS V14.01,2013-09-01 14:46:00,
2013-09-01 07:51:00,77.1,68.2,29.96,WNW,282,0.0,3.0,74,0.00,,---,0.00,VWS V14.01,2013-09-01 14:51:00,
2013-09-01 07:56:00,77.3,68.4,29.96,WNW,292,0.0,3.0,74,0.00,,---,0.00,VWS V14.01,2013-09-01 14:56:00,
2013-09-01 08:01:00,77.3,68.0,29.96,SW,223,0.0,2.0,73,0.00,,---,0.00,VWS V14.01,2013-09-01 15:01:00,
2013-09-01 08:06:00,77.3,68.0,29.96,West,259,0.0,2.0,73,0.00,,---,0.00,VWS V14.01,2013-09-01 15:06:00,
2013-09-01 08:11:00,77.5,68.2,29.96,SSW,209,0.0,2.0,73,0.00,,---,0.00,VWS V14.01,2013-09-01 15:11:00,
2013-09-01 08:16:00,77.7,68.8,29.96,WSW,244,0.0,4.0,74,0.00,,---,0.00,VWS V14.01,2013-09-01 15:16:00,
2013-09-01 08:21:00,78.2,68.8,29.96,SSW,213,1.0,4.0,73,0.00,,---,0.00,VWS V14.01,2013-09-01 15:21:00,
2013-09-01 08:26:00,78.4,69.0,29.96,WSW,253,0.0,4.0,73,0.00,,---,0.00,VWS V14.01,2013-09-01 15:26:00,
2013-09-01 08:31:00,78.7,68.9,29.96,South,184,1.0,5.0,72,0.00,,---,0.00,VWS V14.01,2013-09-01 15:31:00,
2013-09-01 08:36:00,78.6,69.2,29.96,SSW,200,0.0,5.0,73,0.00,,---,0.00,VWS V14.01,2013-09-01 15:36:00,
2013-09-01 08:41:00,78.9,69.5,29.96,SW,220,0.0,5.0,73,0.00,,---,0.00,VWS V14.01,2013-09-01 15:41:00,
2013-09-01 08:46:00,79.3,69.1,29.96,SSE,155,1.0,6.0,71,0.00,,---,0.00,VWS V14.01,2013-09-01 15:46:00,
2013-09-01 08:51:00,79.3,69.5,29.96,South,169,0.0,6.0,72,0.00,,---,0.00,VWS V14.01,2013-09-01 15:51:00,
2013-09-01 08:56:00,79.4,69.6,29.96,South,191,0.0,6.0,72,0.00,,---,0.00,VWS V14.01,2013-09-01 15:56:00,
2013-09-01 09:01:00,79.8,69.6,29.96,WSW,250,0.0,3.0,71,0.00,,---,0.00,VWS V14.01,2013-09-01 16:01:00,
2013-09-01 09:06:00,80.1,69.4,29.96,SW,228,0.0,4.0,70,0.00,,---,0.00,VWS V14.01,2013-09-01 16:06:00,
2013-09-01 09:11:00,80.5,69.8,29.96,SW,221,0.0,6.0,70,0.00,,---,0.00,VWS V14.01,2013-09-01 16:11:00,
2013-09-01 09:16:00,80.5,69.4,29.97,SSW,202,0.0,6.0,69,0.00,,---,0.00,VWS V14.01,2013-09-01 16:16:00,
2013-09-01 09:21:00,80.3,69.2,29.96,ESE,119,1.0,7.0,69,0.00,,---,0.00,VWS V14.01,2013-09-01 16:21:00,
2013-09-01 09:26:00,80.1,69.4,29.96,SSW,208,2.0,7.0,70,0.00,,---,0.00,VWS V14.01,2013-09-01 16:26:00,
2013-09-01 09:31:00,80.3,69.6,29.96,South,191,0.0,4.0,70,0.00,,---,0.00,VWS V14.01,2013-09-01 16:31:00,
2013-09-01 09:36:00,81.0,69.9,29.96,South,173,2.0,4.0,69,0.00,,---,0.00,VWS V14.01,2013-09-01 16:36:00,
2013-09-01 09:41:00,81.6,70.0,29.96,SSW,208,0.0,4.0,68,0.00,,---,0.00,VWS V14.01,2013-09-01 16:41:00,
2013-09-01 09:46:00,82.0,70.4,29.96,SW,236,0.0,4.0,68,0.00,,---,0.00,VWS V14.01,2013-09-01 16:46:00,
2013-09-01 09:51:00,83.1,71.0,29.97,SSW,211,2.0,4.0,67,0.00,,---,0.00,VWS V14.01,2013-09-01 16:51:00,
2013-09-01 09:55:00,83.1,70.6,29.96,SW,232,2.0,4.0,66,0.00,,---,0.00,VWS V14.01,2013-09-01 16:55:00,
2013-09-01 10:00:00,82.7,70.6,29.96,SW,234,0.0,4.0,67,0.00,,---,0.00,VWS V14.01,2013-09-01 17:00:00,
2013-09-01 10:05:00,83.0,70.9,29.96,SSW,200,1.0,6.0,67,0.00,,---,0.00,VWS V14.01,2013-09-01 17:05:00,
2013-09-01 10:10:00,82.9,70.4,29.96,SSW,209,2.0,7.0,66,0.00,,---,0.00,VWS V14.01,2013-09-01 17:10:00,
2013-09-01 10:15:00,82.8,70.7,29.96,SSW,202,2.0,7.0,67,0.00,,---,0.00,VWS V14.01,2013-09-01 17:15:00,
2013-09-01 10:20:00,83.2,70.7,29.96,SW,222,0.0,7.0,66,0.00,,---,0.00,VWS V14.01,2013-09-01 17:20:00,
2013-09-01 10:25:00,83.4,70.4,29.96,WSW,249,0.0,7.0,65,0.00,,---,0.00,VWS V14.01,2013-09-01 17:25:00,
2013-09-01 10:30:00,83.7,70.2,29.96,SE,124,0.0,3.0,64,0.00,,---,0.00,VWS V14.01,2013-09-01 17:30:00,
2013-09-01 10:35:00,83.5,70.5,29.96,SSE,150,0.0,8.0,65,0.00,,---,0.00,VWS V14.01,2013-09-01 17:35:00,
2013-09-01 10:40:00,83.7,70.7,29.96,South,188,2.0,8.0,65,0.00,,---,0.00,VWS V14.01,2013-09-01 17:40:00,
2013-09-01 10:45:00,84.1,70.6,29.96,NNW,347,0.0,8.0,64,0.00,,---,0.00,VWS V14.01,2013-09-01 17:45:00,
2013-09-01 10:50:00,85.0,71.0,29.96,South,187,1.0,8.0,63,0.00,,---,0.00,VWS V14.01,2013-09-01 17:50:00,
2013-09-01 10:55:00,85.2,70.2,29.96,SSW,211,0.0,8.0,61,0.00,,---,0.00,VWS V14.01,2013-09-01 17:55:00,
2013-09-01 11:00:00,85.3,70.8,29.95,SSW,211,0.0,4.0,62,0.00,,---,0.00,VWS V14.01,2013-09-01 18:00:00,
2013-09-01 11:05:00,86.1,70.6,29.96,SSW,210,0.0,5.0,60,0.00,,---,0.00,VWS V14.01,2013-09-01 18:05:00,
2013-09-01 11:10:00,86.0,71.0,29.95,SE,128,4.0,6.0,61,0.00,,---,0.00,VWS V14.01,2013-09-01 18:10:00,
2013-09-01 11:15:00,86.5,71.0,29.95,North,10,0.0,7.0,60,0.00,,---,0.00,VWS V14.01,2013-09-01 18:15:00,
2013-09-01 11:20:00,86.8,70.3,29.95,West,264,0.0,7.0,58,0.00,,---,0.00,VWS V14.01,2013-09-01 18:20:00,
2013-09-01 11:25:00,86.8,70.3,29.95,SSW,192,0.0,7.0,58,0.00,,---,0.00,VWS V14.01,2013-09-01 18:25:00,
2013-09-01 11:30:00,87.5,70.9,29.95,SSE,157,1.0,8.0,58,0.00,,---,0.00,VWS V14.01,2013-09-01 18:30:00,
2013-09-01 11:35:00,88.1,70.4,29.95,SSE,157,0.0,8.0,56,0.00,,---,0.00,VWS V14.01,2013-09-01 18:35:00,
2013-09-01 11:40:00,88.3,70.6,29.95,WNW,300,1.0,8.0,56,0.00,,---,0.00,VWS V14.01,2013-09-01 18:40:00,
2013-09-01 11:45:00,88.2,70.0,29.94,SSW,207,0.0,8.0,55,0.00,,---,0.00,VWS V14.01,2013-09-01 18:45:00,
2013-09-01 11:50:00,88.1,70.4,29.94,South,185,0.0,8.0,56,0.00,,---,0.00,VWS V14.01,2013-09-01 18:50:00,
2013-09-01 11:55:00,88.3,70.1,29.94,South,173,0.0,8.0,55,0.00,,---,0.00,VWS V14.01,2013-09-01 18:55:00,
2013-09-01 12:00:00,88.6,70.4,29.94,SSW,202,5.0,6.0,55,0.00,,---,0.00,VWS V14.01,2013-09-01 19:00:00,
2013-09-01 12:05:00,88.5,70.8,29.94,South,178,1.0,7.0,56,0.00,,---,0.00,VWS V14.01,2013-09-01 19:05:00,
2013-09-01 12:10:00,88.8,70.6,29.94,SSE,150,0.0,9.0,55,0.00,,---,0.00,VWS V14.01,2013-09-01 19:10:00,
2013-09-01 12:15:00,88.9,70.7,29.94,WSW,248,2.0,9.0,55,0.00,,---,0.00,VWS V14.01,2013-09-01 19:15:00,
2013-09-01 12:20:00,88.9,70.7,29.94,SW,223,0.0,9.0,55,0.00,,---,0.00,VWS V14.01,2013-09-01 19:20:00,
2013-09-01 12:25:00,90.0,71.1,29.93,West,267,0.0,9.0,54,0.00,,---,0.00,VWS V14.01,2013-09-01 19:25:00,
2013-09-01 12:30:00,90.3,70.3,29.93,SSE,155,5.0,5.0,52,0.00,,---,0.00,VWS V14.01,2013-09-01 19:30:00,
2013-09-01 12:35:00,90.6,70.6,29.93,NNW,340,1.0,5.0,52,0.00,,---,0.00,VWS V14.01,2013-09-01 19:35:00,
2013-09-01 12:40:00,90.8,70.2,29.93,SSW,205,4.0,6.0,51,0.00,,---,0.00,VWS V14.01,2013-09-01 19:40:00,
2013-09-01 12:45:00,90.0,70.6,29.93,NE,54,0.0,8.0,53,0.00,,---,0.00,VWS V14.01,2013-09-01 19:45:00,
2013-09-01 12:50:00,89.9,70.5,29.93,SSE,159,2.0,8.0,53,0.00,,---,0.00,VWS V14.01,2013-09-01 19:50:00,
2013-09-01 12:55:00,89.9,69.9,29.93,SSW,199,3.0,8.0,52,0.00,,---,0.00,VWS V14.01,2013-09-01 19:55:00,
2013-09-01 13:00:00,90.1,70.1,29.93,South,177,0.0,6.0,52,0.00,,---,0.00,VWS V14.01,2013-09-01 20:00:00,
2013-09-01 13:05:00,90.3,70.3,29.93,ESE,107,0.0,7.0,52,0.00,,---,0.00,VWS V14.01,2013-09-01 20:05:00,
2013-09-01 13:10:00,91.0,70.4,29.93,East,90,4.0,7.0,51,0.00,,---,0.00,VWS V14.01,2013-09-01 20:10:00,
2013-09-01 13:15:00,91.1,69.9,29.93,WNW,294,0.0,9.0,50,0.00,,---,0.00,VWS V14.01,2013-09-01 20:15:00,
2013-09-01 13:20:00,91.1,70.5,29.93,West,261,0.0,9.0,51,0.00,,---,0.00,VWS V14.01,2013-09-01 20:20:00,
2013-09-01 13:25:00,91.0,70.9,29.93,SSE,150,5.0,9.0,52,0.00,,---,0.00,VWS V14.01,2013-09-01 20:25:00,
2013-09-01 13:30:00,91.0,70.4,29.93,WSW,250,3.0,6.0,51,0.00,,---,0.00,VWS V14.01,2013-09-01 20:30:00,
2013-09-01 13:35:00,90.1,70.1,29.93,North,11,1.0,9.0,52,0.00,,---,0.00,VWS V14.01,2013-09-01 20:35:00,
2013-09-01 13:40:00,89.8,69.8,29.93,SE,140,4.0,9.0,52,0.00,,---,0.00,VWS V14.01,2013-09-01 20:40:00,
2013-09-01 13:45:00,89.6,70.2,29.93,WSW,238,0.0,9.0,53,0.00,,---,0.00,VWS V14.01,2013-09-01 20:45:00,
2013-09-01 13:50:00,89.8,69.8,29.93,West,259,2.0,9.0,52,0.00,,---,0.00,VWS V14.01,2013-09-01 20:50:00,
2013-09-01 13:55:00,90.0,70.0,29.92,North,9,0.0,9.0,52,0.00,,---,0.00,VWS V14.01,2013-09-01 20:55:00,
2013-09-01 14:00:00,91.0,70.9,29.92,NW,313,0.0,6.0,52,0.00,,---,0.00,VWS V14.01,2013-09-01 21:00:00,
2013-09-01 14:05:00,90.9,70.3,29.92,South,175,0.0,7.0,51,0.00,,---,0.00,VWS V14.01,2013-09-01 21:05:00,
2013-09-01 14:10:00,90.6,70.6,29.92,West,264,3.0,7.0,52,0.00,,---,0.00,VWS V14.01,2013-09-01 21:10:00,
2013-09-01 14:15:00,90.2,70.2,29.91,SW,227,5.0,7.0,52,0.00,,---,0.00,VWS V14.01,2013-09-01 21:15:00,
2013-09-01 14:20:00,90.4,70.4,29.92,WNW,294,1.0,7.0,52,0.00,,---,0.00,VWS V14.01,2013-09-01 21:20:00,
2013-09-01 14:25:00,90.1,70.1,29.91,WSW,255,1.0,12.0,52,0.00,,---,0.00,VWS V14.01,2013-09-01 21:25:00,
2013-09-01 14:30:00,89.9,70.5,29.91,SW,220,5.0,9.0,53,0.00,,---,0.00,VWS V14.01,2013-09-01 21:30:00,
2013-09-01 14:35:00,90.2,70.2,29.91,West,265,3.0,9.0,52,0.00,,---,0.00,VWS V14.01,2013-09-01 21:35:00,
2013-09-01 14:40:00,90.1,70.1,29.91,NNE,26,0.0,9.0,52,0.00,,---,0.00,VWS V14.01,2013-09-01 21:40:00,
2013-09-01 14:45:00,89.9,69.9,29.91,SE,141,1.0,9.0,52,0.00,,---,0.00,VWS V14.01,2013-09-01 21:45:00,
2013-09-01 14:50:00,90.0,70.6,29.91,ESE,109,0.0,9.0,53,0.00,,---,0.00,VWS V14.01,2013-09-01 21:50:00,
2013-09-01 14:55:00,89.9,70.5,29.91,NNE,13,0.0,9.0,53,0.00,,---,0.00,VWS V14.01,2013-09-01 21:55:00,
2013-09-01 15:00:00,90.0,70.6,29.90,WSW,253,6.0,9.0,53,0.00,,---,0.00,VWS V14.01,2013-09-01 22:00:00,
2013-09-01 15:05:00,89.7,70.9,29.90,SSW,192,0.0,9.0,54,0.00,,---,0.00,VWS V14.01,2013-09-01 22:05:00,
2013-09-01 15:10:00,90.4,70.9,29.90,WNW,285,1.0,9.0,53,0.00,,---,0.00,VWS V14.01,2013-09-01 22:10:00,
2013-09-01 15:15:00,90.6,70.6,29.90,SW,232,2.0,9.0,52,0.00,,---,0.00,VWS V14.01,2013-09-01 22:15:00,
2013-09-01 15:20:00,90.9,70.8,29.89,WSW,244,0.0,9.0,52,0.00,,---,0.00,VWS V14.01,2013-09-01 22:20:00,
2013-09-01 15:25:00,90.9,70.8,29.89,WSW,252,2.0,9.0,52,0.00,,---,0.00,VWS V14.01,2013-09-01 22:25:00,
2013-09-01 15:30:00,90.9,70.8,29.89,SE,130,2.0,8.0,52,0.00,,---,0.00,VWS V14.01,2013-09-01 22:30:00,
2013-09-01 15:35:00,91.2,70.6,29.89,North,355,1.0,8.0,51,0.00,,---,0.00,VWS V14.01,2013-09-01 22:35:00,
2013-09-01 15:40:00,91.1,70.5,29.89,South,173,0.0,8.0,51,0.00,,---,0.00,VWS V14.01,2013-09-01 22:40:00,
2013-09-01 15:45:00,91.1,70.5,29.89,WSW,241,0.0,8.0,51,0.00,,---,0.00,VWS V14.01,2013-09-01 22:45:00,
2013-09-01 15:50:00,91.3,70.1,29.89,SSE,165,0.0,8.0,50,0.00,,---,0.00,VWS V14.01,2013-09-01 22:50:00,
2013-09-01 15:55:00,91.3,70.1,29.89,SSE,164,2.0,8.0,50,0.00,,---,0.00,VWS V14.01,2013-09-01 22:55:00,
2013-09-01 16:00:00,91.0,69.8,29.89,West,265,4.0,8.0,50,0.00,,---,0.00,VWS V14.01,2013-09-01 23:00:00,
2013-09-01 16:05:00,90.4,69.8,29.89,NNW,327,0.0,8.0,51,0.00,,---,0.00,VWS V14.01,2013-09-01 23:05:00,
2013-09-01 16:10:00,90.5,69.9,29.89,NW,304,4.0,8.0,51,0.00,,---,0.00,VWS V14.01,2013-09-01 23:10:00,
2013-09-01 16:15:00,89.9,69.4,29.89,WSW,252,0.0,8.0,51,0.00,,---,0.00,VWS V14.01,2013-09-01 23:15:00,
2013-09-01 16:20:00,88.9,69.0,29.89,WSW,245,4.0,9.0,52,0.00,,---,0.00,VWS V14.01,2013-09-01 23:20:00,
2013-09-01 16:25:00,88.5,69.2,29.89,WNW,292,3.0,9.0,53,0.00,,---,0.00,VWS V14.01,2013-09-01 23:25:00,
2013-09-01 16:30:00,88.3,69.6,29.88,East,85,0.0,5.0,54,0.00,,---,0.00,VWS V14.01,2013-09-01 23:30:00,
2013-09-01 16:35:00,88.3,69.6,29.89,WNW,302,1.0,8.0,54,0.00,,---,0.00,VWS V14.01,2013-09-01 23:35:00,
2013-09-01 16:40:00,87.7,69.0,29.89,SW,234,0.0,8.0,54,0.00,,---,0.00,VWS V14.01,2013-09-01 23:40:00,
2013-09-01 16:45:00,87.3,69.2,29.88,WNW,297,3.0,8.0,55,0.00,,---,0.00,VWS V14.01,2013-09-01 23:45:00,
2013-09-01 16:50:00,86.9,69.8,29.88,West,274,0.0,8.0,57,0.00,,---,0.00,VWS V14.01,2013-09-01 23:50:00,
2013-09-01 16:55:00,86.7,69.7,29.88,WSW,255,0.0,8.0,57,0.00,,---,0.00,VWS V14.01,2013-09-01 23:55:00,
2013-09-01 17:00:00,86.0,69.5,29.88,West,267,0.0,7.0,58,0.00,,---,0.00,VWS V14.01,2013-09-02 00:00:00,
2013-09-01 17:05:00,85.6,69.6,29.88,NW,311,2.0,9.0,59,0.00,,---,0.00,VWS V14.01,2013-09-02 00:05:00,
2013-09-01 17:10:00,85.0,69.6,29.88,WNW,290,0.0,9.0,60,0.00,,---,0.00,VWS V14.01,2013-09-02 00:10:00,
2013-09-01 17:15:00,84.3,69.4,29.88,West,271,4.0,9.0,61,0.00,,---,0.00,VWS V14.01,2013-09-02 00:15:00,
2013-09-01 17:20:00,83.9,69.5,29.88,WNW,300,0.0,9.0,62,0.00,,---,0.00,VWS V14.01,2013-09-02 00:20:00,
2013-09-01 17:25:00,83.3,69.4,29.88,WNW,298,0.0,9.0,63,0.00,,---,0.00,VWS V14.01,2013-09-02 00:25:00,
2013-09-01 17:30:00,82.9,69.5,29.88,North,360,0.0,3.0,64,0.00,,---,0.00,VWS V14.01,2013-09-02 00:30:00,
2013-09-01 17:35:00,82.4,69.5,29.88,WNW,282,2.0,10.0,65,0.00,,---,0.00,VWS V14.01,2013-09-02 00:35:00,
2013-09-01 17:40:00,82.1,69.6,29.88,West,281,2.0,10.0,66,0.00,,---,0.00,VWS V14.01,2013-09-02 00:40:00,
2013-09-01 17:45:00,81.6,69.2,29.88,NNW,329,1.0,10.0,66,0.00,,---,0.00,VWS V14.01,2013-09-02 00:45:00,
2013-09-01 17:50:00,81.2,69.2,29.88,WNW,301,3.0,10.0,67,0.00,,---,0.00,VWS V14.01,2013-09-02 00:50:00,
2013-09-01 17:55:00,80.8,69.3,29.88,NNW,337,0.0,10.0,68,0.00,,---,0.00,VWS V14.01,2013-09-02 00:55:00,
2013-09-01 18:00:00,80.5,69.4,29.88,West,273,0.0,4.0,69,0.00,,---,0.00,VWS V14.01,2013-09-02 01:00:00,
2013-09-01 18:05:00,80.4,69.3,29.88,NW,321,1.0,4.0,69,0.00,,---,0.00,VWS V14.01,2013-09-02 01:05:00,
2013-09-01 18:10:00,80.2,69.1,29.88,SW,235,0.0,9.0,69,0.00,,---,0.00,VWS V14.01,2013-09-02 01:10:00,
2013-09-01 18:15:00,79.8,68.7,29.88,West,264,0.0,9.0,69,0.00,,---,0.00,VWS V14.01,2013-09-02 01:15:00,
2013-09-01 18:20:00,79.6,69.0,29.89,WNW,293,3.0,9.0,70,0.00,,---,0.00,VWS V14.01,2013-09-02 01:20:00,
2013-09-01 18:25:00,79.2,69.0,29.89,WNW,302,0.0,9.0,71,0.00,,---,0.00,VWS V14.01,2013-09-02 01:25:00,
2013-09-01 18:30:00,78.9,68.7,29.89,SSW,198,3.0,6.0,71,0.00,,---,0.00,VWS V14.01,2013-09-02 01:30:00,
2013-09-01 18:35:00,78.6,68.8,29.89,SW,228,0.0,6.0,72,0.00,,---,0.00,VWS V14.01,2013-09-02 01:35:00,
2013-09-01 18:40:00,78.4,68.6,29.89,WSW,254,1.0,6.0,72,0.00,,---,0.00,VWS V14.01,2013-09-02 01:40:00,
2013-09-01 18:45:00,78.1,68.3,29.89,West,276,0.0,8.0,72,0.00,,---,0.00,VWS V14.01,2013-09-02 01:45:00,
2013-09-01 18:50:00,77.8,68.1,29.89,WNW,288,0.0,8.0,72,0.00,,---,0.00,VWS V14.01,2013-09-02 01:50:00,
2013-09-01 18:55:00,77.7,68.4,29.89,NW,313,0.0,8.0,73,0.00,,---,0.00,VWS V14.01,2013-09-02 01:55:00,
2013-09-01 19:00:00,77.5,68.2,29.90,WNW,295,0.0,6.0,73,0.00,,---,0.00,VWS V14.01,2013-09-02 02:00:00,
2013-09-01 19:05:00,77.3,68.0,29.90,WNW,285,3.0,6.0,73,0.00,,---,0.00,VWS V14.01,2013-09-02 02:05:00,
2013-09-01 19:10:00,77.2,67.9,29.90,West,278,0.0,6.0,73,0.00,,---,0.00,VWS V14.01,2013-09-02 02:10:00,
2013-09-01 19:15:00,77.1,67.8,29.90,WSW,249,1.0,6.0,73,0.00,,---,0.00,VWS V14.01,2013-09-02 02:15:00,
2013-09-01 19:20:00,76.9,67.6,29.90,WNW,286,0.0,6.0,73,0.00,,---,0.00,VWS V14.01,2013-09-02 02:20:00,
2013-09-01 19:25:00,76.8,67.5,29.91,NNW,337,0.0,6.0,73,0.00,,---,0.00,VWS V14.01,2013-09-02 02:25:00,
2013-09-01 19:30:00,76.6,67.3,29.91,NNW,334,0.0,1.0,73,0.00,,---,0.00,VWS V14.01,2013-09-02 02:30:00,
2013-09-01 19:35:00,76.5,67.2,29.91,North,355,0.0,1.0,73,0.00,,---,0.00,VWS V14.01,2013-09-02 02:35:00,
2013-09-01 19:40:00,76.4,67.5,29.91,WSW,254,0.0,1.0,74,0.00,,---,0.00,VWS V14.01,2013-09-02 02:40:00,
2013-09-01 19:45:00,76.2,67.3,29.91,West,265,0.0,1.0,74,0.00,,---,0.00,VWS V14.01,2013-09-02 02:45:00,
2013-09-01 19:50:00,76.1,67.2,29.91,WSW,257,0.0,2.0,74,0.00,,---,0.00,VWS V14.01,2013-09-02 02:50:00,
2013-09-01 19:55:00,75.9,67.0,29.91,West,261,0.0,3.0,74,0.00,,---,0.00,VWS V14.01,2013-09-02 02:55:00,
2013-09-01 20:00:00,75.7,67.2,29.91,West,276,0.0,0.0,75,0.00,,---,0.00,VWS V14.01,2013-09-02 03:00:00,
2013-09-01 20:05:00,75.6,67.1,29.91,WSW,246,0.0,1.0,75,0.00,,---,0.00,VWS V14.01,2013-09-02 03:05:00,
2013-09-01 20:10:00,75.4,67.3,29.91,West,275,0.0,1.0,76,0.00,,---,0.00,VWS V14.01,2013-09-02 03:10:00,
2013-09-01 20:15:00,75.3,67.2,29.92,WSW,252,0.0,1.0,76,0.00,,---,0.00,VWS V14.01,2013-09-02 03:15:00,
2013-09-01 20:20:00,75.2,67.1,29.92,WNW,290,0.0,2.0,76,0.00,,---,0.00,VWS V14.01,2013-09-02 03:20:00,
2013-09-01 20:25:00,74.9,67.2,29.92,WSW,256,0.0,2.0,77,0.00,,---,0.00,VWS V14.01,2013-09-02 03:25:00,
2013-09-01 20:30:00,74.8,67.1,29.92,WSW,256,0.0,0.0,77,0.00,,---,0.00,VWS V14.01,2013-09-02 03:30:00,
2013-09-01 20:35:00,74.7,67.4,29.92,WSW,256,0.0,0.0,78,0.00,,---,0.00,VWS V14.01,2013-09-02 03:35:00,
2013-09-01 20:40:00,74.6,67.3,29.92,WSW,256,0.0,1.0,78,0.00,,---,0.00,VWS V14.01,2013-09-02 03:40:00,
2013-09-01 20:45:00,74.5,67.2,29.92,WSW,256,0.0,1.0,78,0.00,,---,0.00,VWS V14.01,2013-09-02 03:45:00,
2013-09-01 20:50:00,74.5,67.6,29.92,WSW,256,0.0,1.0,79,0.00,,---,0.00,VWS V14.01,2013-09-02 03:50:00,
2013-09-01 20:55:00,74.4,67.5,29.92,WSW,256,0.0,1.0,79,0.00,,---,0.00,VWS V14.01,2013-09-02 03:55:00,
2013-09-01 21:00:00,74.3,67.4,29.93,WSW,256,0.0,0.0,79,0.00,,---,0.00,VWS V14.01,2013-09-02 04:00:00,
2013-09-01 21:01:00,74.3,67.4,29.93,WSW,256,0.0,0.0,79,0.00,,---,0.00,VWS V14.01,2013-09-02 04:01:00,
2013-09-01 21:03:00,74.3,67.4,29.93,WSW,256,0.0,0.0,79,0.00,,---,0.00,VWS V14.01,2013-09-02 04:03:00,
2013-09-01 21:08:00,74.3,67.4,29.93,WSW,256,0.0,0.0,79,0.00,,---,0.00,VWS V14.01,2013-09-02 04:08:00,
2013-09-01 21:13:00,74.2,67.6,29.93,WSW,256,0.0,0.0,80,0.00,,---,0.00,VWS V14.01,2013-09-02 04:13:00,
2013-09-01 21:18:00,74.1,67.5,29.93,WSW,256,0.0,0.0,80,0.00,,---,0.00,VWS V14.01,2013-09-02 04:18:00,
2013-09-01 21:23:00,74.0,67.4,29.93,WSW,256,0.0,0.0,80,0.00,,---,0.00,VWS V14.01,2013-09-02 04:23:00,
2013-09-01 21:28:00,73.9,67.3,29.93,WSW,256,0.0,0.0,80,0.00,,---,0.00,VWS V14.01,2013-09-02 04:28:00,
2013-09-01 21:33:00,73.9,67.7,29.93,WSW,256,0.0,0.0,81,0.00,,---,0.00,VWS V14.01,2013-09-02 04:33:00,
2013-09-01 21:38:00,73.7,67.5,29.93,WSW,256,0.0,0.0,81,0.00,,---,0.00,VWS V14.01,2013-09-02 04:38:00,
2013-09-01 21:43:00,73.6,67.4,29.93,WSW,256,0.0,0.0,81,0.00,,---,0.00,VWS V14.01,2013-09-02 04:43:00,
2013-09-01 21:48:00,73.5,67.3,29.93,WSW,256,0.0,0.0,81,0.00,,---,0.00,VWS V14.01,2013-09-02 04:48:00,
2013-09-01 21:53:00,73.4,67.2,29.94,WSW,256,0.0,0.0,81,0.00,,---,0.00,VWS V14.01,2013-09-02 04:53:00,
2013-09-01 21:58:00,73.3,67.5,29.94,WSW,256,0.0,0.0,82,0.00,,---,0.00,VWS V14.01,2013-09-02 04:58:00,
2013-09-01 22:03:00,73.2,67.4,29.94,WSW,256,0.0,0.0,82,0.00,,---,0.00,VWS V14.01,2013-09-02 05:03:00,
2013-09-01 22:08:00,73.0,67.2,29.94,WSW,256,0.0,0.0,82,0.00,,---,0.00,VWS V14.01,2013-09-02 05:08:00,
2013-09-01 22:13:00,72.8,67.0,29.94,WSW,256,0.0,0.0,82,0.00,,---,0.00,VWS V14.01,2013-09-02 05:13:00,
2013-09-01 22:18:00,72.7,67.2,29.94,WSW,256,0.0,0.0,83,0.00,,---,0.00,VWS V14.01,2013-09-02 05:18:00,
2013-09-01 22:23:00,72.6,67.2,29.94,WSW,256,0.0,0.0,83,0.00,,---,0.00,VWS V14.01,2013-09-02 05:23:00,
2013-09-01 22:28:00,72.4,66.9,29.94,WSW,256,0.0,0.0,83,0.00,,---,0.00,VWS V14.01,2013-09-02 05:28:00,
2013-09-01 22:33:00,72.3,66.8,29.94,WSW,256,0.0,0.0,83,0.00,,---,0.00,VWS V14.01,2013-09-02 05:33:00,
2013-09-01 22:38:00,72.2,67.1,29.94,WSW,256,0.0,0.0,84,0.00,,---,0.00,VWS V14.01,2013-09-02 05:38:00,
2013-09-01 22:43:00,72.0,66.9,29.94,WSW,256,0.0,0.0,84,0.00,,---,0.00,VWS V14.01,2013-09-02 05:43:00,
2013-09-01 22:48:00,71.9,66.8,29.94,WSW,256,0.0,0.0,84,0.00,,---,0.00,VWS V14.01,2013-09-02 05:48:00,
2013-09-01 22:53:00,71.9,67.2,29.94,WSW,256,0.0,0.0,85,0.00,,---,0.00,VWS V14.01,2013-09-02 05:53:00,
2013-09-01 22:58:00,71.8,67.1,29.94,WSW,256,0.0,0.0,85,0.00,,---,0.00,VWS V14.01,2013-09-02 05:58:00,
2013-09-01 23:03:00,71.7,66.9,29.94,WSW,256,0.0,0.0,85,0.00,,---,0.00,VWS V14.01,2013-09-02 06:03:00,
2013-09-01 23:08:00,71.6,66.9,29.94,WSW,256,0.0,0.0,85,0.00,,---,0.00,VWS V14.01,2013-09-02 06:08:00,
2013-09-01 23:13:00,71.5,66.8,29.94,WSW,256,0.0,0.0,85,0.00,,---,0.00,VWS V14.01,2013-09-02 06:13:00,
2013-09-01 23:18:00,71.5,66.8,29.94,WSW,256,0.0,0.0,85,0.00,,---,0.00,VWS V14.01,2013-09-02 06:18:00,
2013-09-01 23:23:00,71.3,66.6,29.94,WSW,256,0.0,0.0,85,0.00,,---,0.00,VWS V14.01,2013-09-02 06:23:00,
2013-09-01 23:28:00,71.2,66.5,29.94,WSW,256,0.0,0.0,85,0.00,,---,0.00,VWS V14.01,2013-09-02 06:28:00,
2013-09-01 23:33:00,71.0,66.6,29.94,WSW,256,0.0,0.0,86,0.00,,---,0.00,VWS V14.01,2013-09-02 06:33:00,
2013-09-01 23:38:00,71.0,66.6,29.94,WSW,256,0.0,0.0,86,0.00,,---,0.00,VWS V14.01,2013-09-02 06:38:00,
2013-09-01 23:42:00,70.9,66.5,29.94,WSW,256,0.0,0.0,86,0.00,,---,0.00,VWS V14.01,2013-09-02 06:42:00,
2013-09-01 23:47:00,70.8,66.4,29.94,WSW,256,0.0,0.0,86,0.00,,---,0.00,VWS V14.01,2013-09-02 06:47:00,
2013-09-01 23:52:00,70.7,66.7,29.94,WSW,256,0.0,0.0,87,0.00,,---,0.00,VWS V14.01,2013-09-02 06:52:00,
2013-09-01 23:57:00,70.6,66.6,29.94,WSW,256,0.0,0.0,87,0.00,,---,0.00,VWS V14.01,2013-09-02 06:57:00,